NOAA 16 DEB, 41292

Orbit data source: Space-Track

NOAA 16 DEB, 41292 is space debris in SSO originally from a launch on Thu, 21 Sep 2000 UTC launched from the Air Force Western Test Range (AFWTR). Debris objects in space refer to the collection of defunct objects orbiting the Earth. Examples of debris include non-operational satellites, rocket bodies, and fragments generated from explosions, collisions, or faulty payload assembly.

Loading next visibility...
Identifier
41292, 2000-055GU
Orbit
SSO
Country
Flag of USUS
Related business
Manufacturer
Unknown
Mission
Spacecraft
Bus & Motor
Unknown
Mass
Unknown
Launch date (UTC)
2000-09-21 (25 years ago)
Launch vehicle
Unknown
Launch site
Air Force Western Test Range (AFWTR)
Object type
Payload
Rocket body
Debris
Shape & HBR
Unknown shape, 0.1 m
Radar Cross Section
Small (<0.1 m²)

Expand to show TLE details & history
Last TLE update: 2 days ago

TLE from 2 days ago
0 NOAA 16 DEB
1 41292U 00055GU  25308.55090457  .00009668  00000-0  22648-2 0  9994
2 41292  98.9732 163.3806 0035944 347.0039  13.0226 14.54384291515125
Epoch: 2025-11-04T13:13Z
TLE epoch observation values (Epoch: 2025-11-04T13:13:18.154Z)
Latitude
-0.00003°
Longitude
-78.98135°
Altitude
689.49 km
Speed
7.525 km/s
True Right ascension
10h 53m 31s
True Declination
0° 00' 00"
Sunlit
Object was in daylight at epoch
Visualization orbit readout
Latitude
Unknown
Longitude
Unknown
Altitude
Unknown
Speed
Unknown
Apparent Right ascension
Unknown
Apparent Declination
Unknown
Sunlit
N/A
Visualization observer readout
Local Sidereal Time
05:11:42
Azimuth
Unknown
Elevation
Unknown
Doppler factor
Unknown
Orbital elements
Apogee altitude
733.963 km
Perigee altitude
683.018 km
Semi-major axis
7,086.628 km
Eccentricity
0.00359
Inclination
98.9732°
RAAN
163.3806°
Arg. of periapsis
347.0039°
True anomaly
13.11582°
Mean anomaly
13.0226°
Eccentric anomaly
13.06917°
Mean motion
3.63818 °/min
Orbital period
98.95 mins
BSTAR
0.0022648
Loading maneuver chart data...
Computing Atmospheric mass density...

Documentation

Showing up to 5 results
|